Flag for U.S.A. Weather past 2 weeks in Appleton, Wisconsin, U.S.A.

Now
14 °F

Light snow. Overcast.


Feels Like: -2 °F
Forecast: 8 / 16 °F
Wind: 16 mph from Northeast

Location: Appleton / Outagamie

Current Time: Feb 1, 2015 at 4:58:43 AM

Latest Report: Feb 1, 2015 at 4:15 AM


Visibility: 3 mi

Pressure: 30.21 "Hg

Humidity: 79%

Dew point: 9 °F

Location of AppletonLocation

Historic Weather in Appleton — Graph

°F

Appleton temperature yesterday

Maximum temperature yesterday: 27 °F (at 10:45 AM)
Minimum temperature yesterday: 18 °F (at 11:35 PM)
Average temperature yesterday: 22 °F

Past Weeks' High & Low Weather Summary

 TemperatureHumidityPressure
High39 °F (Jan 17, 1:45 PM)100% (Jan 19, 8:45 PM)30.51 "Hg (Jan 19, 8:45 PM)
Low12 °F (Jan 26, 1:15 AM)49% (Jan 30, 2:45 PM)29.44 "Hg (Jan 17, 2:45 PM)
Average26 °F76%30.01 "Hg
* Reported Jan 17 3:15 AM — Feb 1 3:35 AM, Appleton, Weather by CustomWeather, © 2014

Note: Actual official high and low records may vary slightly from our data, if they occured in-between our weather recording intervals... More about our weather records

Advertising

Appleton weather history for previous 24 hours

 ConditionsComfort  
Time TempWeatherWind HumidityBarometerVisibility
3:35 AM
Feb 1
14 °FLight snow. Overcast.13 mph79%30.22 "Hg3 mi
3:15 AM14 °FLight snow. Overcast.15 mph79%30.22 "Hg4 mi
2:55 AM14 °FLight snow. Overcast.15 mph79%30.23 "Hg4 mi
2:35 AM14 °FLight snow. Overcast.15 mph73%30.23 "Hg4 mi
2:15 AM14 °FOvercast.15 mph73%30.24 "Hg4 mi
1:55 AM14 °FOvercast.18 mph67%30.24 "Hg5 mi
1:35 AM16 °FOvercast.20 mph62%30.23 "Hg7 mi
1:15 AM16 °FMostly cloudy.15 mph62%30.24 "Hg7 mi
12:55 AM16 °FOvercast.15 mph67%30.25 "Hg7 mi
12:35 AM16 °FOvercast.17 mph73%30.26 "Hg7 mi
12:15 AM18 °FOvercast.17 mph68%30.27 "Hg10 mi
11:55 PM
Jan 31
18 °FMostly cloudy.20 mph73%30.27 "Hg10 mi
11:35 PM18 °FMostly cloudy.22 mph73%30.26 "Hg10 mi
11:15 PM19 °FLight snow. Mostly cloudy.14 mph73%30.25 "Hg7 mi
10:55 PM19 °FOvercast.15 mph73%30.24 "Hg10 mi
10:35 PM19 °FOvercast.15 mph73%30.24 "Hg10 mi
10:15 PM19 °FOvercast.16 mph73%30.22 "Hg10 mi
9:45 PM21 °FOvercast.16 mph68%30.22 "Hg10 mi
8:45 PM25 °FOvercast.12 mph74%30.22 "Hg10 mi
7:45 PM27 °FOvercast.7 mph69%30.21 "Hg10 mi
6:45 PM27 °FOvercast.5 mph69%30.21 "Hg10 mi
4:45 PM27 °FOvercast.No wind69%30.20 "Hg10 mi
3:45 PM27 °FOvercast.No wind69%30.18 "Hg10 mi
2:45 PM27 °FOvercast.3 mph69%30.17 "Hg10 mi
1:45 PM27 °FOvercast.6 mph69%30.15 "Hg10 mi
12:45 PM27 °FOvercast.3 mph69%30.16 "Hg10 mi
11:45 AM27 °FOvercast.7 mph69%30.17 "Hg10 mi
10:45 AM27 °FOvercast.8 mph64%30.17 "Hg10 mi
9:45 AM25 °FOvercast.7 mph74%30.16 "Hg10 mi
8:45 AM25 °FMore clouds than sun.7 mph69%30.16 "Hg10 mi
7:45 AM21 °FOvercast.8 mph80%30.15 "Hg10 mi
6:45 AM21 °FOvercast.8 mph80%30.15 "Hg10 mi
5:45 AM21 °FMostly cloudy.8 mph80%30.14 "Hg10 mi
4:15 AM21 °FOvercast.7 mph74%30.16 "Hg10 mi
Weather by CustomWeather, © 2014

See weather overviewHow to use our weather pages